TimeHST,TemperatureF,Dew PointF,Humidity,Sea Level PressureIn,VisibilityMPH,Wind Direction,Wind SpeedMPH,Gust SpeedMPH,PrecipitationIn,Events,Conditions,WindDirDegrees,DateUTC
12:15 AM,68.0,60.8,78,30.14,10.0,NE,8.1,16.1,N/A,,Mostly Cloudy,50,2013-02-25 10:15:00
12:54 AM,68.0,60.1,76,30.15,10.0,NE,13.8,26.5,N/A,,Mostly Cloudy,50,2013-02-25 10:54:00
1:54 AM,68.0,60.1,76,30.13,10.0,NE,13.8,21.9,N/A,,Scattered Clouds,50,2013-02-25 11:54:00
2:54 AM,66.9,61.0,81,30.11,9.0,NE,12.7,21.9,0.00,Rain,Light Rain,50,2013-02-25 12:54:00
3:54 AM,68.0,60.1,76,30.10,10.0,NE,10.4,19.6,0.00,,Mostly Cloudy,50,2013-02-25 13:54:00
4:54 AM,66.9,60.1,79,30.09,10.0,NE,10.4,20.7,0.00,,Scattered Clouds,40,2013-02-25 14:54:00
5:54 AM,68.0,59.0,73,30.10,10.0,NE,10.4,25.3,0.00,,Mostly Cloudy,40,2013-02-25 15:54:00
6:32 AM,66.2,60.8,83,30.10,10.0,NE,6.9,17.3,N/A,,Mostly Cloudy,40,2013-02-25 16:32:00
6:47 AM,66.2,60.8,83,30.10,10.0,NE,9.2,20.7,N/A,,Scattered Clouds,40,2013-02-25 16:47:00
6:54 AM,68.0,60.1,76,30.12,10.0,NE,11.5,19.6,N/A,,Scattered Clouds,40,2013-02-25 16:54:00
7:54 AM,69.1,60.1,73,30.14,10.0,NE,13.8,20.7,0.00,,Scattered Clouds,50,2013-02-25 17:54:00
8:54 AM,71.1,60.1,68,30.14,10.0,NE,16.1,25.3,N/A,,Scattered Clouds,50,2013-02-25 18:54:00
9:54 AM,73.0,61.0,66,30.16,10.0,NE,15.0,24.2,N/A,,Scattered Clouds,50,2013-02-25 19:54:00
10:54 AM,73.9,61.0,64,30.16,10.0,NE,18.4,29.9,N/A,,Scattered Clouds,50,2013-02-25 20:54:00
11:54 AM,73.9,62.1,66,30.14,10.0,NNE,13.8,24.2,N/A,,Scattered Clouds,20,2013-02-25 21:54:00
12:54 PM,73.0,62.1,68,30.12,10.0,NE,16.1,28.8,N/A,,Scattered Clouds,40,2013-02-25 22:54:00
1:54 PM,75.9,62.1,62,30.08,10.0,NE,23.0,29.9,N/A,,Scattered Clouds,40,2013-02-25 23:54:00
2:54 PM,75.0,62.1,64,30.08,10.0,NNE,17.3,27.6,N/A,,Scattered Clouds,30,2013-02-26 00:54:00
3:54 PM,73.9,63.0,68,30.07,10.0,NNE,15.0,27.6,N/A,,Scattered Clouds,30,2013-02-26 01:54:00
4:54 PM,73.0,63.0,71,30.08,10.0,NE,16.1,28.8,N/A,,Scattered Clouds,50,2013-02-26 02:54:00
5:54 PM,71.1,63.0,75,30.09,10.0,ENE,15.0,28.8,N/A,,Scattered Clouds,60,2013-02-26 03:54:00
6:54 PM,69.1,62.1,78,30.12,10.0,NE,12.7,20.7,N/A,,Clear,40,2013-02-26 04:54:00
7:54 PM,70.0,62.1,76,30.15,10.0,NE,8.1,19.6,N/A,,Scattered Clouds,40,2013-02-26 05:54:00
8:03 PM,69.8,62.6,78,30.14,10.0,NE,11.5,18.4,N/A,,Mostly Cloudy,40,2013-02-26 06:03:00
8:54 PM,69.1,62.1,78,30.17,10.0,NE,9.2,19.6,N/A,,Mostly Cloudy,50,2013-02-26 06:54:00
9:16 PM,68.0,62.6,83,30.17,10.0,NE,10.4,25.3,0.00,,Partly Cloudy,50,2013-02-26 07:16:00
9:54 PM,69.1,62.1,78,30.19,10.0,NE,12.7,28.8,0.00,,Clear,50,2013-02-26 07:54:00
10:54 PM,69.1,62.1,78,30.18,10.0,NE,15.0,25.3,N/A,,Scattered Clouds,50,2013-02-26 08:54:00
11:54 PM,69.1,61.0,75,30.17,10.0,NE,16.1,31.1,0.00,,Clear,40,2013-02-26 09:54:00